SL-14 DEB, 45291

Orbit data source: Space-Track

SL-14 DEB, 45291 is space debris in LEO originally from a launch on Thu, 15 Aug 1991 UTC launched from the Plesetsk Missile And Space Complex (PKMTR). Debris objects in space refer to the collection of defunct objects orbiting the Earth. Examples of debris include non-operational satellites, rocket bodies, and fragments generated from explosions, collisions, or faulty payload assembly.

Loading next visibility...
SL-14 DEB details
Identifier
45291, 1991-056AD
Orbit
LEO
Last TLE update1 day ago
Origin
Flag of CISRosgidromet (CIS)
ManufacturerUnknown
MissionSpacecraft
Bus & MotorUnknown
MassUnknown
Launch date (UTC)
1991-08-15 (33 years ago)
Launch vehicleUnknown
Launch site
Plesetsk Missile And Space Complex (PKMTR)
Object type
Payload
Rocket body
Debris
Shape & HBRUnknown
Radar Cross SectionSmall (<0.1 m²)

Expand to show TLE details & history

TLE from 1 day ago
0 SL-14 DEB
1 45291U 91056AD  25023.08013342 -.00000111  00000-0 -35073-3 0  9991
2 45291  82.5498 154.1386 0040284 140.0029 220.4069 13.10601188235744
Epoch: 2025-01-23T01:55Z
Definitive object data (Epoch: 2025-01-23T01:55:23.527Z)
Latitude-0.00002°
Longitude2.62777°
Altitude1,246.998 km
Speed7.22 km/s
True Right ascension10h 16m 33s
True Declination0° 00' 00"
Sunlit
Object was in full shadow at TLE epoch
Visualization TLE readout
Latitude42.43364°
Longitude174.76259°
Altitude1,196.376 km
Speed7.274 km/s
Apparent Right ascension00h 01m 56s
Apparent Declination6° 55' 19"
Sunlit
Object is in daylight
Visualization observer readout
Local Sidereal Time14:41:51
Azimuth47.691° ENE
Elevation-30.405°
Doppler factor1
Orbital elements
Apogee altitude1,248.689 km
Perigee altitude1,187.487 km
Semi-major axis7,596.225 km
Eccentricity0.0040284
Inclination82.5498°
RAAN154.1386°
Arg. of periapsis140.0029°
True anomaly220.10882°
Mean anomaly220.4069°
Eccentric anomaly220.25774°
Mean motion3.27828 °/min
BSTAR-0.00035073
Orbital period109.81 mins
Loading maneuver chart data...
Loading historical data...
Loading historical data...
Loading historical data...
Loading historical data...
Loading historical data...
Loading historical data...
Loading historical data...

SL-14 DEB Visibility forecast

Observer location: undefined°, undefined

Span
Click to sort rows by Start time (UTC) header in descending order
Start Az.
Max El. time (UTC)
Max El. Az.
Max El.
End time (UTC)
End Az.
10 mins2025-01-24 18:49:50.897Z21.382° NNE2025-01-24 18:54:50.897Z65.808° ENE19.424°2025-01-24 18:59:50.897Z111.495° ESE
12 mins2025-01-24 20:40:50.897Z345.574° N2025-01-24 20:46:50.897Z242.313° WSW42.875°2025-01-24 20:52:50.897Z185.578° SSW
13 mins2025-01-25 08:59:50.897Z178.092° S2025-01-25 09:05:50.897Z71.48° E44.242°2025-01-25 09:12:50.897Z10.554° NNE
8 mins2025-01-25 10:53:50.897Z262.905° W2025-01-25 10:56:50.897Z290.768° WNW17.983°2025-01-25 11:01:50.897Z334.995° NNW
|